Temperature
9 7 7 8 8 7 7 8 8 9 7 6 5 3 2 0 -2 -3 -5 -6 -7 -8 -9 -9 -10 -10 -10 -10 -11 -11 -12 -12 -13 -13 -13 -14 -14 -14 -14 -14 -14 -13 -13 -12
9 6 6 6 7 7 7 7 6 6 6 5 3 3 2 -0 -3 -4 -6 -7 -8 -8 -9 -10 -10 -9 -10 -10 -11 -11 -12 -13 -13 -13 -13 -14 -14 -14 -14 -14 -14 -14 -13 -13
11 8 8 10 9 7 6 6 6 6 6 4 3 2 0 -2 -4 -6 -7 -8 -8 -9 -9 -9 -9 -9 -9 -10 -11 -12 -12 -12 -13 -13 -13 -14 -14 -15 -15 -15 -14 -14 -14 -14
9 10 10 11 5 6 6 6 5 5 4 3 2 0 -2 -4 -6 -7 -8 -8 -8 -8 -8 -9 -9 -9 -10 -10 -11 -12 -12 -13 -13 -13 -14 -14 -14 -15 -15 -15 -15 -15 -14 -14
8 9 11 7 5 5 5 6 4 4 3 2 1 -0 -2 -5 -7 -8 -8 -8 -8 -8 -8 -8 -9 -9 -10 -10 -12 -12 -13 -13 -13 -14 -15 -15 -15 -15 -15 -15 -15 -15 -14 -14
6 8 11 10 5 3 5 5 4 3 3 1 -0 1 -1 -6 -7 -7 -7 -7 -7 -8 -8 -9 -9 -9 -10 -11 -11 -12 -12 -13 -13 -14 -15 -15 -15 -15 -15 -15 -15 -14 -14 -14
6 7 11 6 3 3 5 7 3 2 1 -0 -1 -2 -5 -6 -7 -7 -7 -7 -7 -8 -8 -9 -9 -9 -10 -10 -11 -11 -12 -12 -13 -14 -15 -15 -15 -15 -15 -15 -15 -14 -14 -14
7 7 9 3 3 5 6 2 2 1 -0 -2 -3 -5 -6 -6 -6 -6 -6 -7 -7 -7 -8 -9 -9 -10 -10 -11 -11 -11 -12 -12 -13 -13 -14 -15 -15 -15 -15 -15 -15 -14 -14 -13
9 10 5 3 4 3 3 2 1 -0 -1 -2 -4 -5 -6 -6 -6 -6 -7 -7 -7 -7 -8 -8 -9 -10 -10 -11 -11 -11 -11 -12 -13 -13 -14 -15 -15 -15 -15 -15 -15 -14 -14 -13
6 7 4 2 2 2 2 1 1 -0 -1 -3 -4 -5 -5 -6 -6 -6 -7 -7 -7 -7 -8 -9 -9 -10 -10 -10 -11 -11 -12 -13 -13 -14 -14 -14 -14 -14 -14 -14 -14 -14 -14 -14
6 5 2 1 1 2 2 1 0 -1 -2 -3 -4 -5 -5 -6 -6 -6 -7 -7 -7 -8 -8 -9 -9 -10 -10 -10 -10 -11 -12 -13 -14 -14 -14 -14 -14 -14 -14 -14 -14 -14 -14 -14
8 6 4 3 2 2 1 1 -0 -1 -3 -4 -4 -5 -6 -6 -6 -6 -6 -7 -7 -8 -8 -9 -9 -9 -9 -10 -10 -11 -12 -13 -14 -14 -14 -14 -14 -14 -14 -14 -14 -15 -15 -15
4 4 4 3 2 2 1 0 -1 -2 -3 -4 -5 -5 -5 -6 -6 -6 -6 -7 -7 -8 -8 -9 -9 -9 -9 -9 -10 -11 -12 -13 -13 -14 -14 -14 -14 -14 -14 -14 -15 -15 -15 -15
4 4 3 2 2 1 0 -1 -2 -3 -4 -4 -5 -5 -6 -6 -6 -6 -6 -7 -7 -8 -8 -8 -9 -9 -9 -9 -10 -11 -12 -12 -13 -14 -14 -14 -14 -14 -14 -14 -14 -15 -15 -15
3 3 3 2 2 1 -0 -1 -2 -3 -4 -4 -5 -5 -6 -6 -6 -6 -6 -7 -7 -7 -8 -8 -8 -9 -9 -9 -10 -11 -11 -12 -13 -13 -13 -14 -14 -14 -14 -14 -15 -15 -15 -15
2 2 2 2 1 1 -0 -2 -3 -3 -4 -5 -5 -5 -5 -6 -6 -6 -6 -7 -7 -7 -7 -8 -8 -9 -9 -9 -10 -10 -11 -11 -12 -13 -13 -13 -14 -14 -15 -15 -15 -15 -15 -15
2 1 1 1 1 0 -1 -2 -2 -3 -4 -5 -5 -5 -5 -6 -6 -6 -6 -7 -7 -7 -7 -8 -8 -8 -9 -9 -9 -10 -10 -11 -11 -12 -13 -13 -13 -14 -14 -15 -15 -15 -15 -15
5 5 4 3 2 1 -1 -2 -3 -3 -4 -5 -5 -5 -5 -5 -5 -6 -6 -6 -6 -7 -7 -7 -8 -8 -9 -9 -9 -9 -9 -10 -11 -12 -13 -13 -13 -13 -13 -14 -15 -15 -15 -16
3 3 2 1 1 0 -0 -2 -3 -4 -4 -5 -5 -5 -5 -5 -5 -6 -6 -6 -6 -6 -6 -7 -8 -8 -8 -9 -9 -9 -9 -9 -10 -11 -12 -12 -13 -13 -13 -13 -14 -15 -15 -15
2 2 1 1 1 0 -1 -2 -3 -4 -4 -5 -5 -5 -5 -5 -6 -6 -6 -6 -6 -6 -6 -7 -7 -8 -8 -9 -9 -9 -9 -9 -9 -10 -11 -12 -12 -12 -12 -13 -13 -14 -14 -14
2 1 1 1 0 -1 -2 -2 -3 -4 -4 -5 -5 -5 -5 -5 -6 -6 -6 -6 -6 -6 -6 -7 -7 -7 -8 -9 -9 -9 -9 -9 -9 -10 -10 -11 -11 -11 -12 -12 -12 -13 -13 -13
1 1 1 1 -0 -1 -2 -3 -4 -4 -4 -5 -5 -5 -5 -5 -6 -6 -6 -6 -6 -6 -6 -6 -6 -7 -8 -8 -8 -9 -9 -9 -9 -9 -10 -10 -10 -10 -11 -11 -11 -12 -12 -13
1 1 1 0 -0 -1 -2 -3 -4 -4 -5 -5 -5 -5 -5 -5 -5 -5 -5 -6 -6 -6 -6 -6 -6 -7 -7 -7 -8 -8 -9 -9 -9 -9 -9 -9 -10 -10 -10 -10 -10 -10 -11 -11
1 1 0 -0 -1 -2 -2 -3 -4 -4 -5 -5 -5 -5 -5 -5 -5 -5 -5 -6 -6 -6 -6 -6 -6 -6 -7 -7 -7 -7 -8 -8 -9 -9 -9 -9 -9 -10 -10 -10 -10 -9 -9 -10
1 1 0 -0 -1 -2 -2 -3 -4 -4 -5 -5 -5 -5 -5 -5 -5 -5 -6 -6 -6 -6 -6 -6 -6 -6 -6 -6 -7 -7 -8 -8 -9 -9 -9 -9 -9 -10 -10 -10 -10 -10 -10 -9
1 1 0 0 -0 -1 -2 -3 -3 -4 -5 -5 -5 -5 -5 -6 -6 -5 -6 -6 -6 -6 -6 -6 -6 -6 -6 -6 -6 -7 -7 -7 -8 -8 -8 -9 -9 -9 -10 -10 -10 -10 -10 -10
1 0 -0 -1 -2 -2 -3 -3 -3 -4 -4 -5 -5 -5 -6 -6 -6 -6 -6 -6 -6 -6 -6 -6 -6 -6 -6 -6 -6 -7 -7 -7 -7 -8 -8 -8 -8 -9 -10 -10 -10 -10 -10 -10
Wind_Speed
6 3 4 7 9 9 12 10 9 8 7 11 6 11 13 13 11 11 14 14 14 14 15 16 16 15 15 16 16 16 16 16 17 17 18 18 18 19 19 19 19 19 19 20
4 2 5 8 11 11 12 11 11 12 11 2 6 10 14 12 9 12 14 14 14 15 16 16 16 16 16 16 16 16 16 16 17 17 17 18 18 18 19 19 19 19 19 19
4 5 8 8 6 10 7 8 7 7 5 4 10 13 13 8 6 12 13 13 14 15 15 15 16 16 16 16 16 16 16 16 16 17 17 18 18 18 18 18 18 18 19 19
4 6 6 1 1 5 7 7 8 7 5 4 8 10 4 2 7 11 12 12 13 13 14 15 15 15 15 16 16 16 16 16 16 17 17 18 18 17 17 16 16 16 18 19
2 4 9 3 5 5 5 5 6 6 3 5 7 9 3 1 5 9 10 11 11 12 14 14 14 15 16 16 16 16 16 17 17 17 18 18 18 17 16 16 16 16 16 18
2 4 6 1 6 5 2 4 7 5 3 5 7 8 5 2 5 7 9 10 11 12 13 13 14 15 16 16 17 17 18 18 18 18 18 18 18 17 16 15 15 16 16 16
6 7 9 4 9 7 3 2 8 4 2 2 3 3 3 3 5 7 9 10 11 12 12 12 13 14 16 16 17 18 18 19 19 18 17 17 16 16 15 14 15 15 15 15
6 6 7 11 11 8 1 7 6 4 3 2 1 1 2 4 6 8 10 11 11 12 13 13 13 14 16 16 17 18 18 18 18 18 16 14 15 15 14 14 14 13 14 14
9 5 3 11 6 4 7 6 5 5 5 4 3 2 2 3 5 7 9 10 10 12 14 13 13 14 15 17 17 18 18 18 17 17 16 15 15 15 13 12 11 11 11 11
8 8 6 10 7 7 6 6 7 8 7 6 5 3 1 3 5 7 8 9 10 12 13 14 15 14 14 16 17 17 18 18 16 16 16 16 13 12 12 12 12 11 9 9
9 4 4 9 11 9 8 10 11 9 8 7 6 4 1 3 5 6 8 9 10 11 13 15 15 15 15 16 17 17 18 16 16 15 15 15 14 12 12 11 12 12 9 8
6 7 7 7 13 13 13 11 11 11 9 7 5 4 1 2 4 6 8 9 10 12 13 14 14 15 15 16 17 17 16 16 14 14 14 13 13 13 15 14 16 15 13 11
4 6 6 11 13 11 10 11 10 9 9 8 6 3 0 2 4 6 7 9 10 12 12 13 14 14 16 16 17 17 16 15 14 14 14 14 13 13 13 13 13 12 13 12
9 9 7 8 9 11 12 12 11 10 8 8 6 3 1 3 4 6 7 9 10 11 11 12 13 14 16 16 16 16 15 15 15 13 14 13 13 13 11 11 10 8 9 10
10 5 9 12 13 13 13 12 11 9 9 7 5 2 2 3 5 6 8 9 9 9 10 11 12 14 16 16 16 15 13 12 13 13 13 13 13 12 11 11 9 8 7 7
12 10 13 15 15 13 13 12 10 10 9 7 5 3 2 3 5 6 7 7 8 9 10 11 12 14 16 15 15 12 11 16 16 13 12 12 12 12 11 11 10 8 7 6
17 13 12 13 14 14 13 11 10 10 9 8 6 3 2 3 4 5 6 7 7 8 9 10 12 14 15 14 13 10 10 12 17 13 12 12 11 11 11 10 10 8 7 8
18 16 16 17 16 15 13 11 10 11 8 7 6 4 2 1 4 6 8 8 7 6 8 11 12 14 13 14 12 9 9 10 11 11 12 12 11 10 10 10 10 9 7 7
13 14 13 13 14 15 14 12 11 10 9 8 7 5 2 1 4 6 7 7 7 8 10 13 18 14 12 14 14 7 9 10 10 11 11 13 12 10 9 9 9 9 8 7
12 13 13 13 13 12 13 12 12 10 9 8 7 5 3 1 3 5 6 5 3 5 10 12 12 10 11 12 13 7 9 10 11 11 11 11 11 10 9 9 9 8 8 7
14 14 14 14 13 12 13 14 13 11 9 8 7 5 3 2 3 4 4 4 4 8 10 11 9 9 11 12 11 7 8 9 10 11 11 11 10 10 9 9 8 8 8 8
15 15 15 14 14 13 12 12 11 11 10 8 6 5 3 2 2 3 3 4 6 11 9 6 8 13 16 13 7 8 9 9 10 11 11 12 11 10 10 9 8 8 8 8
14 14 15 14 14 13 12 11 11 11 10 9 8 7 4 2 1 2 3 4 6 10 7 6 11 15 16 9 7 8 9 10 11 11 12 13 13 12 11 11 9 9 9 8
15 14 13 13 13 13 13 11 10 8 8 7 6 5 4 2 2 2 4 7 9 10 6 8 12 14 12 7 7 8 8 9 11 11 12 13 13 14 13 12 11 10 10 11
15 14 15 15 14 12 12 12 10 8 8 6 6 6 5 4 3 2 4 5 7 8 5 7 10 11 8 7 7 8 8 9 11 11 12 13 13 14 15 15 14 13 12 11
13 13 12 13 11 10 11 11 10 9 8 7 6 6 5 4 3 3 3 4 5 5 5 5 6 7 6 7 7 8 8 9 10 10 12 13 14 15 15 16 19 16 14 13
12 11 10 10 9 10 11 11 11 11 10 9 7 7 6 5 4 3 2 2 2 3 3 4 5 5 6 7 7 8 9 9 10 11 13 13 13 13 15 17 16 17 18 19
Wind_Direction
277 275 262 261 253 229 226 242 262 287 292 317 345 342 340 345 347 345 343 342 343 341 339 338 336 334 334 333 334 334 333 335 335 335 335 335 335 338 339 339 339 339 339 338
274 216 277 268 252 239 239 244 252 273 292 8 332 330 336 345 344 340 340 341 341 338 337 335 333 331 330 328 330 329 330 330 331 332 332 332 332 336 338 338 338 339 338 338
282 307 300 273 239 215 218 219 233 266 311 333 323 334 337 341 341 338 339 339 337 334 332 329 327 325 324 325 324 325 326 326 327 328 329 329 330 333 336 335 335 336 335 337
299 317 282 100 89 215 224 238 227 252 282 304 322 327 339 10 342 338 337 332 330 328 325 323 322 321 320 321 320 322 322 323 325 325 324 325 328 330 332 333 331 332 333 336
268 283 275 203 187 182 217 259 207 215 245 312 327 302 211 116 345 335 332 327 325 324 321 321 322 323 322 321 323 322 322 322 323 322 321 322 324 326 332 332 329 330 332 336
190 261 271 158 147 144 192 256 172 189 270 317 322 321 3 53 341 336 330 328 326 323 322 323 325 325 323 324 327 327 325 322 321 322 323 323 321 325 328 329 330 330 332 337
217 242 270 133 141 152 223 12 149 186 249 304 304 319 9 5 350 339 332 332 329 325 324 326 327 326 325 326 328 327 323 321 322 325 326 323 324 325 324 326 329 331 333 338
198 229 263 145 155 192 172 123 157 163 147 158 182 94 28 6 348 338 335 334 332 327 325 328 331 331 327 328 328 324 323 324 327 328 328 327 328 327 327 328 329 332 335 340
208 231 79 167 172 150 135 152 156 148 138 139 146 116 41 354 337 334 333 331 330 326 324 330 336 334 328 327 327 326 327 329 330 329 330 331 332 332 332 330 328 327 330 338
253 256 209 189 165 148 145 137 131 130 133 137 137 122 58 338 334 334 332 331 330 327 329 332 335 334 330 328 329 328 330 331 332 332 332 335 337 337 334 329 325 325 337 342
248 239 172 188 182 158 131 128 126 122 125 131 135 130 119 319 327 329 328 329 328 330 329 330 332 332 334 334 334 333 333 334 334 335 338 342 344 344 342 340 340 349 354 344
229 188 174 174 166 151 144 146 141 135 133 128 132 136 157 308 319 324 326 327 328 330 330 330 331 332 337 339 338 337 337 339 339 341 345 347 346 347 351 353 355 1 0 354
128 126 117 125 137 143 142 142 144 143 143 142 138 137 309 311 319 327 329 331 329 326 325 327 330 334 340 342 339 340 341 341 340 344 347 347 346 344 343 347 357 6 5 360
141 128 130 146 146 140 133 131 128 124 130 140 139 134 273 301 315 327 329 325 320 319 323 329 333 338 342 342 340 342 346 345 346 346 348 348 348 347 345 345 349 359 4 3
166 148 141 136 130 128 130 135 138 140 145 144 141 157 248 298 317 319 319 320 320 320 329 334 336 339 342 341 342 344 350 350 348 349 351 353 354 354 353 353 357 359 359 3
147 124 132 140 144 146 151 157 161 160 160 159 166 189 245 287 301 309 319 328 324 322 326 329 333 336 339 342 341 344 349 352 356 354 356 357 358 358 358 359 1 3 2 359
149 154 157 158 161 165 170 173 169 162 162 165 172 189 243 294 314 329 333 327 310 303 314 330 333 333 340 344 342 343 344 347 355 358 360 358 358 358 359 360 2 1 360 355
177 172 171 168 167 167 168 166 160 157 161 164 163 182 205 329 338 327 325 322 320 330 348 346 334 338 342 344 345 341 340 346 352 356 359 359 358 355 355 356 358 358 354 352
164 159 157 159 160 159 159 159 157 154 152 157 169 175 181 295 316 316 318 322 334 345 343 334 335 342 341 345 349 339 339 344 349 351 355 356 356 353 352 351 350 349 346 343
147 144 141 142 144 147 151 150 150 152 157 163 167 173 184 262 313 314 309 300 314 310 305 321 335 336 339 345 348 340 340 343 345 345 347 350 350 349 346 342 338 336 335 332
145 142 142 143 144 146 149 151 155 159 163 172 176 176 185 256 295 302 300 325 338 322 326 341 338 334 346 349 344 341 341 342 343 343 343 342 340 340 338 334 328 323 320 317
149 150 149 148 146 147 151 156 158 159 164 174 179 182 200 240 298 301 267 285 316 325 339 338 333 343 354 352 344 342 341 341 342 342 343 340 337 332 327 323 316 311 307 303
154 154 154 154 152 148 149 158 163 166 173 180 183 188 193 213 296 311 316 317 319 328 344 337 341 350 355 352 346 344 343 343 343 343 343 340 339 335 327 319 309 300 294 291
153 153 150 145 142 148 160 170 170 172 177 183 190 194 199 205 225 238 279 306 322 331 340 340 351 356 358 354 348 346 345 342 342 343 343 341 340 339 338 333 323 311 298 290
151 148 148 152 160 169 169 163 165 172 180 193 202 205 211 215 228 276 298 307 320 332 334 341 355 0 359 350 348 345 341 340 343 343 343 341 340 341 343 344 342 334 325 312
155 161 167 172 169 164 164 168 176 181 184 191 198 200 200 204 220 251 282 301 315 332 338 339 346 353 353 349 347 344 341 339 341 342 342 340 338 341 343 346 346 347 344 339
152 153 156 163 169 171 171 176 181 184 188 189 189 189 190 191 198 215 253 287 315 331 338 343 345 347 348 346 344 343 341 341 341 342 342 339 338 337 341 345 348 349 350 350
Height
1608 1613 1613 1609 1608 1610 1610 1604 1601 1594 1602 1603 1608 1610 1608 1606 1604 1601 1597 1593 1587 1582 1576 1570 1563 1557 1550 1543 1536 1530 1524 1517 1511 1505 1498 1492 1485 1479 1472 1466 1459 1453 1446 1440
1605 1613 1612 1608 1604 1606 1606 1605 1603 1603 1603 1607 1609 1608 1606 1605 1603 1600 1595 1591 1586 1580 1574 1567 1561 1554 1547 1540 1534 1528 1522 1516 1509 1503 1496 1490 1484 1478 1471 1464 1458 1451 1445 1439
1598 1606 1605 1591 1594 1599 1600 1601 1602 1601 1603 1607 1606 1606 1605 1603 1601 1598 1594 1590 1584 1578 1571 1565 1559 1552 1545 1539 1532 1526 1520 1514 1507 1500 1494 1488 1482 1476 1469 1463 1457 1450 1444 1438
1604 1600 1597 1586 1599 1599 1599 1600 1602 1603 1605 1606 1606 1605 1602 1600 1599 1596 1592 1587 1581 1575 1569 1563 1557 1551 1545 1538 1531 1524 1518 1511 1505 1498 1491 1485 1480 1474 1468 1462 1456 1450 1444 1438
1609 1600 1586 1592 1597 1599 1599 1596 1600 1602 1603 1604 1604 1601 1600 1598 1597 1594 1590 1585 1580 1574 1568 1562 1556 1550 1543 1536 1529 1523 1516 1509 1502 1495 1489 1483 1478 1473 1467 1461 1455 1450 1444 1439
1613 1602 1585 1581 1595 1598 1601 1595 1599 1600 1601 1602 1602 1597 1598 1597 1595 1592 1588 1583 1578 1573 1567 1561 1555 1548 1541 1535 1528 1521 1514 1507 1500 1493 1487 1481 1476 1471 1466 1461 1456 1450 1445 1439
1608 1601 1578 1588 1594 1599 1594 1589 1598 1598 1599 1600 1600 1600 1599 1595 1593 1590 1586 1582 1577 1572 1566 1560 1553 1547 1540 1534 1527 1520 1513 1505 1498 1491 1485 1479 1474 1468 1463 1459 1455 1450 1445 1440
1600 1597 1584 1588 1592 1592 1590 1593 1595 1596 1597 1597 1597 1596 1595 1594 1591 1588 1585 1581 1576 1571 1566 1559 1552 1546 1539 1533 1526 1519 1511 1504 1497 1490 1483 1477 1472 1467 1462 1458 1454 1450 1445 1441
1585 1578 1579 1583 1584 1587 1588 1591 1593 1594 1594 1594 1594 1594 1593 1592 1590 1586 1583 1579 1575 1570 1564 1559 1552 1545 1538 1532 1524 1517 1509 1502 1495 1489 1483 1477 1472 1467 1462 1458 1454 1450 1446 1442
1581 1574 1578 1580 1582 1584 1587 1589 1590 1591 1592 1592 1592 1592 1591 1590 1588 1585 1582 1578 1573 1568 1563 1557 1551 1545 1538 1531 1523 1515 1508 1501 1494 1488 1482 1477 1472 1467 1462 1457 1453 1449 1446 1443
1574 1573 1575 1577 1579 1582 1584 1586 1588 1589 1589 1590 1590 1590 1590 1588 1586 1584 1581 1577 1572 1567 1562 1556 1550 1544 1538 1531 1523 1514 1507 1500 1494 1488 1483 1477 1472 1467 1462 1458 1454 1450 1447 1445
1563 1564 1568 1571 1574 1579 1582 1584 1586 1586 1587 1587 1588 1588 1588 1587 1585 1583 1580 1576 1572 1567 1562 1556 1550 1544 1538 1531 1523 1514 1506 1500 1494 1489 1483 1477 1472 1467 1463 1459 1454 1450 1447 1445
1560 1562 1565 1568 1572 1577 1580 1582 1583 1584 1585 1585 1586 1587 1586 1585 1584 1582 1579 1575 1571 1566 1561 1556 1550 1544 1538 1531 1524 1515 1508 1502 1496 1490 1484 1478 1472 1467 1462 1459 1455 1451 1447 1445
1558 1561 1565 1567 1571 1574 1577 1579 1580 1581 1582 1584 1585 1585 1585 1584 1583 1581 1578 1574 1570 1566 1561 1556 1551 1545 1539 1532 1524 1517 1510 1504 1498 1492 1486 1479 1474 1469 1464 1459 1455 1452 1449 1446
1556 1559 1562 1565 1568 1572 1574 1576 1578 1579 1580 1582 1583 1583 1583 1583 1582 1580 1577 1574 1570 1566 1562 1556 1551 1545 1539 1532 1526 1519 1512 1505 1500 1494 1488 1482 1476 1470 1465 1461 1457 1454 1450 1448
1552 1556 1559 1562 1566 1569 1571 1573 1575 1577 1578 1580 1581 1582 1582 1582 1581 1579 1576 1573 1569 1565 1561 1556 1550 1545 1540 1533 1527 1520 1514 1508 1502 1496 1490 1484 1477 1472 1467 1463 1459 1456 1453 1450
1546 1550 1555 1559 1562 1565 1568 1571 1573 1575 1576 1578 1579 1580 1581 1581 1580 1578 1576 1572 1568 1564 1560 1556 1551 1546 1540 1535 1528 1522 1516 1510 1504 1498 1492 1486 1480 1474 1470 1465 1462 1458 1455 1452
1542 1546 1551 1555 1559 1562 1565 1568 1571 1573 1574 1576 1577 1578 1580 1580 1579 1577 1575 1572 1569 1565 1561 1557 1551 1546 1541 1536 1530 1524 1519 1512 1506 1500 1495 1489 1483 1478 1473 1468 1464 1460 1456 1453
1540 1546 1550 1554 1557 1560 1563 1566 1568 1571 1572 1574 1575 1577 1578 1578 1578 1576 1573 1571 1567 1564 1561 1556 1551 1546 1541 1536 1531 1527 1521 1515 1509 1503 1497 1492 1486 1480 1475 1470 1466 1462 1458 1454
1538 1543 1548 1551 1554 1557 1560 1563 1566 1568 1570 1572 1573 1575 1576 1577 1576 1574 1572 1569 1565 1562 1558 1554 1550 1546 1541 1536 1532 1528 1523 1517 1511 1505 1499 1494 1488 1482 1477 1472 1467 1463 1459 1455
1535 1540 1545 1548 1551 1555 1558 1561 1563 1565 1567 1569 1571 1573 1574 1574 1574 1573 1571 1568 1565 1561 1558 1554 1550 1545 1540 1536 1533 1529 1524 1519 1513 1507 1501 1496 1490 1484 1479 1473 1468 1463 1459 1455
1532 1538 1542 1545 1548 1551 1554 1557 1560 1563 1565 1567 1569 1570 1572 1572 1572 1571 1570 1567 1564 1561 1557 1553 1549 1545 1541 1537 1533 1529 1525 1520 1515 1509 1503 1497 1492 1486 1480 1474 1468 1463 1458 1454
1529 1534 1538 1542 1545 1548 1551 1554 1557 1560 1562 1564 1566 1568 1570 1571 1571 1570 1569 1566 1563 1560 1556 1552 1548 1545 1541 1537 1533 1529 1525 1520 1515 1510 1505 1499 1493 1488 1482 1475 1469 1463 1458 1452
1525 1530 1534 1538 1542 1545 1547 1550 1554 1556 1559 1562 1564 1565 1567 1568 1568 1568 1566 1564 1562 1560 1556 1552 1548 1545 1541 1537 1533 1529 1525 1520 1515 1511 1506 1500 1495 1489 1483 1477 1471 1465 1458 1452
1521 1526 1530 1533 1537 1540 1544 1547 1550 1552 1555 1558 1560 1562 1564 1565 1566 1566 1564 1563 1561 1559 1556 1552 1548 1545 1541 1537 1533 1529 1525 1520 1516 1511 1506 1501 1495 1490 1484 1479 1473 1467 1460 1454
1516 1521 1525 1529 1533 1536 1539 1542 1545 1548 1551 1553 1556 1559 1561 1562 1563 1563 1562 1561 1560 1558 1555 1552 1549 1545 1542 1538 1534 1530 1526 1521 1517 1512 1507 1502 1496 1490 1485 1480 1474 1468 1462 1456
1513 1517 1521 1524 1528 1531 1534 1537 1540 1543 1546 1549 1552 1554 1557 1558 1560 1560 1560 1559 1558 1557 1554 1552 1549 1545 1542 1538 1535 1531 1527 1522 1518 1513 1508 1503 1497 1491 1486 1481 1476 1470 1464 1457